| time (UTC) | temp F | wind direction | speed MPH | gust MPH | rain 1hr in | rain 24hr in | rain mn in | humidity % | barometer mb |
| 20260905222515 | 96 | 113 | 1.0 | 3.0 | 0.00 | 0.00 | 0.00 | 59 | 1013.6 |
| 20260905221517 | 96 | 113 | 2.0 | 7.0 | 0.00 | 0.00 | 0.00 | 59 | 1013.6 |
| 20260905220518 | 96 | 113 | 1.0 | 5.0 | 0.00 | 0.00 | 0.00 | 60 | 1013.7 |
| 20260905215517 | 95 | 113 | 2.0 | 7.0 | 0.00 | 0.00 | 0.00 | 58 | 1013.7 |
| 20260905214517 | 96 | 113 | 2.0 | 5.0 | 0.00 | 0.00 | 0.00 | 57 | 1013.8 |
| 20260905213517 | 96 | 90 | 2.0 | 5.0 | 0.00 | 0.00 | 0.00 | 57 | 1013.9 |
| 20260905212517 | 95 | 113 | 2.0 | 5.0 | 0.00 | 0.00 | 0.00 | 56 | 1014.2 |
| 20260905211517 | 96 | 113 | 2.0 | 6.0 | 0.00 | 0.00 | 0.00 | 58 | 1014.5 |
| 20260905210517 | 95 | 113 | 1.0 | 5.0 | 0.00 | 0.00 | 0.00 | 57 | 1014.6 |
| 20260905205538 | 94 | 113 | 2.0 | 7.0 | 0.00 | 0.00 | 0.00 | 57 | 1014.7 |
| 20260905204517 | 94 | 113 | 2.0 | 5.0 | 0.00 | 0.00 | 0.00 | 55 | 1014.7 |
| 20260905203517 | 94 | 113 | 2.0 | 5.0 | 0.00 | 0.00 | 0.00 | 57 | 1015.1 |
| 20260905202517 | 94 | 113 | 3.0 | 7.0 | 0.00 | 0.00 | 0.00 | 56 | 1015.4 |
| 20260905201517 | 93 | 113 | 2.0 | 8.0 | 0.00 | 0.00 | 0.00 | 56 | 1015.7 |
| 20260905200537 | 93 | 113 | 3.0 | 7.0 | 0.00 | 0.00 | 0.00 | 56 | 1015.9 |
| 20260905195517 | 93 | 113 | 3.0 | 7.0 | 0.00 | 0.00 | 0.00 | 57 | 1016.0 |
| 20260905194558 | 93 | 113 | 3.0 | 7.0 | 0.00 | 0.00 | 0.00 | 61 | 1016.0 |
| 20260905193517 | 93 | 113 | 3.0 | 8.0 | 0.00 | 0.00 | 0.00 | 59 | 1016.1 |
| 20260905192517 | 93 | 113 | 3.0 | 6.0 | 0.00 | 0.00 | 0.00 | 61 | 1016.2 |
| 20260905191517 | 93 | 113 | 2.0 | 5.0 | 0.00 | 0.00 | 0.00 | 62 | 1016.6 |
| 20260905190517 | 92 | 113 | 3.0 | 7.0 | 0.00 | 0.00 | 0.00 | 62 | 1016.7 |
| 20260905185517 | 92 | 113 | 2.0 | 6.0 | 0.00 | 0.00 | 0.00 | 64 | 1017.0 |
| 20260905184517 | 91 | 113 | 3.0 | 7.0 | 0.00 | 0.00 | 0.00 | 63 | 1017.3 |
| 20260905183517 | 91 | 113 | 3.0 | 8.0 | 0.00 | 0.00 | 0.00 | 63 | 1017.6 |
| 20260905182517 | 91 | 113 | 3.0 | 8.0 | 0.00 | 0.00 | 0.00 | 65 | 1017.5 |
| 20260905181517 | 91 | 113 | 3.0 | 8.0 | 0.00 | 0.00 | 0.00 | 65 | 1017.5 |
| 20260905180517 | 92 | 113 | 3.0 | 7.0 | 0.00 | 0.00 | 0.00 | 63 | 1017.4 |
| 20260905175517 | 93 | 135 | 2.0 | 6.0 | 0.00 | 0.00 | 0.00 | 62 | 1017.4 |
| 20260905174517 | 93 | 158 | 2.0 | 6.0 | 0.00 | 0.00 | 0.00 | 62 | 1017.4 |
| 20260905173517 | 93 | 113 | 2.0 | 5.0 | 0.00 | 0.00 | 0.00 | 62 | 1017.4 |
| 20260905172517 | 94 | 315 | 2.0 | 4.0 | 0.00 | 0.00 | 0.00 | 62 | 1017.4 |
| 20260905171517 | 94 | 90 | 2.0 | 4.0 | 0.00 | 0.00 | 0.00 | 60 | 1017.4 |
| 20260905170517 | 94 | 293 | 1.0 | 4.0 | 0.00 | 0.00 | 0.00 | 61 | 1017.5 |
| 20260905165517 | 94 | 315 | 1.0 | 3.0 | 0.00 | 0.00 | 0.00 | 60 | 1017.6 |
| 20260905164517 | 93 | 293 | 2.0 | 5.0 | 0.00 | 0.00 | 0.00 | 60 | 1017.5 |
| 20260905163517 | 93 | 113 | 1.0 | 2.0 | 0.00 | 0.00 | 0.00 | 63 | 1017.5 |
| 20260905162517 | 92 | 0.0 | 3.0 | 0.00 | 0.00 | 0.00 | 65 | 1017.3 | |
| 20260905161517 | 90 | 0.0 | 1.0 | 0.00 | 0.00 | 0.00 | 66 | 1017.3 | |
| 20260905160517 | 89 | 0.0 | 1.0 | 0.00 | 0.00 | 0.00 | 69 | 1017.1 | |
| 20260905155517 | 88 | 0.0 | 1.0 | 0.00 | 0.00 | 0.00 | 68 | 1017.0 | |
| 20260905154517 | 87 | 0.0 | 1.0 | 0.00 | 0.00 | 0.00 | 70 | 1017.0 | |
| 20260905153517 | 87 | 0.0 | 2.0 | 0.00 | 0.00 | 0.00 | 71 | 1017.0 | |
| 20260905152517 | 87 | 0.0 | 0.0 | 0.00 | 0.00 | 0.00 | 72 | 1017.0 | |
| 20260905151557 | 86 | 0.0 | 1.0 | 0.00 | 0.00 | 0.00 | 72 | 1016.9 | |
| 20260905150517 | 86 | 0.0 | 1.0 | 0.00 | 0.00 | 0.00 | 72 | 1016.9 | |
| 20260905145516 | 85 | 0.0 | 2.0 | 0.00 | 0.00 | 0.00 | 72 | 1016.5 | |
| 20260905144517 | 85 | 0.0 | 2.0 | 0.00 | 0.00 | 0.00 | 74 | 1016.3 | |
| 20260905143517 | 84 | 90 | 1.0 | 2.0 | 0.00 | 0.00 | 0.00 | 74 | 1016.2 |
| 20260905142517 | 84 | 113 | 1.0 | 3.0 | 0.00 | 0.00 | 0.00 | 73 | 1015.9 |
| 20260905141516 | 83 | 0.0 | 1.0 | 0.00 | 0.00 | 0.00 | 74 | 1015.9 | |
| 20260905140516 | 84 | 0.0 | 2.0 | 0.00 | 0.00 | 0.00 | 73 | 1016.1 | |
| 20260905135518 | 83 | 113 | 1.0 | 2.0 | 0.00 | 0.00 | 0.00 | 74 | 1016.3 |
| 20260905134517 | 82 | 0.0 | 1.0 | 0.00 | 0.00 | 0.00 | 76 | 1016.2 | |
| 20260905133516 | 81 | 0.0 | 1.0 | 0.00 | 0.00 | 0.00 | 78 | 1015.9 | |
| 20260905132536 | 80 | 0.0 | 1.0 | 0.00 | 0.00 | 0.00 | 81 | 1015.7 | |
| 20260905131516 | 78 | 0.0 | 2.0 | 0.00 | 0.00 | 0.00 | 84 | 1015.5 | |
| 20260905130516 | 76 | 0.0 | 1.0 | 0.00 | 0.00 | 0.00 | 86 | 1015.5 | |
| 20260905125516 | 76 | 0.0 | 2.0 | 0.00 | 0.00 | 0.00 | 86 | 1015.4 | |
| 20260905124516 | 76 | 0.0 | 0.0 | 0.00 | 0.00 | 0.00 | 87 | 1015.2 | |
| 20260905123516 | 76 | 0.0 | 0.0 | 0.00 | 0.00 | 0.00 | 87 | 1015.0 | |
| 20260905122516 | 76 | 0.0 | 1.0 | 0.00 | 0.00 | 0.00 | 87 | 1014.8 | |
| 20260905121516 | 76 | 0.0 | 0.0 | 0.00 | 0.00 | 0.00 | 86 | 1014.8 | |
| 20260905120516 | 76 | 0.0 | 1.0 | 0.00 | 0.00 | 0.00 | 86 | 1014.9 | |
| 20260905115516 | 76 | 0.0 | 0.0 | 0.00 | 0.00 | 0.00 | 85 | 1014.8 | |
| 20260905114516 | 77 | 0.0 | 0.0 | 0.00 | 0.00 | 0.00 | 85 | 1014.9 | |
| 20260905113516 | 77 | 0.0 | 0.0 | 0.00 | 0.00 | 0.00 | 84 | 1014.8 | |
| 20260905112516 | 78 | 0.0 | 0.0 | 0.00 | 0.00 | 0.00 | 83 | 1014.7 | |
| 20260905111516 | 78 | 0.0 | 1.0 | 0.00 | 0.00 | 0.00 | 81 | 1014.7 | |
| 20260905110516 | 79 | 158 | 1.0 | 3.0 | 0.00 | 0.00 | 0.00 | 80 | 1014.7 |
| 20260905105536 | 79 | 158 | 1.0 | 2.0 | 0.00 | 0.00 | 0.00 | 78 | 1014.8 |
| 20260905104516 | 79 | 158 | 1.0 | 3.0 | 0.00 | 0.00 | 0.00 | 77 | 1014.7 |
| 20260905103536 | 79 | 158 | 2.0 | 8.0 | 0.00 | 0.00 | 0.00 | 78 | 1014.4 |
| 20260905102516 | 79 | 180 | 2.0 | 4.0 | 0.00 | 0.00 | 0.00 | 79 | 1014.4 |
| 20260905101516 | 79 | 158 | 1.0 | 3.0 | 0.00 | 0.00 | 0.00 | 80 | 1014.3 |
| 20260905100536 | 78 | 158 | 2.0 | 4.0 | 0.00 | 0.00 | 0.00 | 81 | 1014.2 |
| 20260905095516 | 78 | 0.0 | 2.0 | 0.00 | 0.00 | 0.00 | 84 | 1014.1 | |
| 20260905094517 | 77 | 158 | 2.0 | 4.0 | 0.00 | 0.00 | 0.00 | 88 | 1014.0 |
| 20260905093516 | 77 | 0.0 | 2.0 | 0.00 | 0.00 | 0.00 | 90 | 1013.9 | |
| 20260905092516 | 77 | 0.0 | 1.0 | 0.00 | 0.00 | 0.00 | 90 | 1013.8 | |
| 20260905091516 | 77 | 158 | 1.0 | 2.0 | 0.00 | 0.00 | 0.00 | 89 | 1014.0 |
| 20260905090516 | 77 | 0.0 | 1.0 | 0.00 | 0.00 | 0.00 | 89 | 1014.1 | |
| 20260905085516 | 77 | 0.0 | 0.0 | 0.00 | 0.00 | 0.00 | 89 | 1014.2 | |
| 20260905084516 | 77 | 0.0 | 0.0 | 0.00 | 0.00 | 0.00 | 89 | 1014.2 | |
| 20260905083516 | 77 | 0.0 | 0.0 | 0.00 | 0.00 | 0.00 | 89 | 1014.2 | |
| 20260905082516 | 77 | 0.0 | 1.0 | 0.00 | 0.00 | 0.00 | 89 | 1014.1 | |
| 20260905081516 | 78 | 0.0 | 0.0 | 0.00 | 0.00 | 0.00 | 89 | 1014.4 | |
| 20260905080516 | 78 | 0.0 | 0.0 | 0.00 | 0.00 | 0.00 | 88 | 1014.5 | |
| 20260905075516 | 78 | 0.0 | 0.0 | 0.00 | 0.00 | 0.00 | 86 | 1014.5 | |
| 20260905074516 | 78 | 0.0 | 0.0 | 0.00 | 0.00 | 0.00 | 85 | 1014.6 | |
| 20260905073516 | 79 | 0.0 | 0.0 | 0.00 | 0.00 | 0.00 | 84 | 1014.7 | |
| 20260905072516 | 79 | 0.0 | 0.0 | 0.00 | 0.00 | 0.00 | 84 | 1014.7 | |
| 20260905071516 | 79 | 0.0 | 0.0 | 0.00 | 0.00 | 0.00 | 84 | 1014.7 | |
| 20260905070536 | 79 | 0.0 | 0.0 | 0.00 | 0.00 | 0.00 | 84 | 1014.7 | |
| 20260905065516 | 80 | 0.0 | 0.0 | 0.00 | 0.00 | 0.00 | 83 | 1014.8 | |
| 20260905064536 | 80 | 0.0 | 0.0 | 0.00 | 0.00 | 0.00 | 83 | 1014.9 | |
| 20260905063516 | 80 | 0.0 | 0.0 | 0.00 | 0.00 | 0.00 | 81 | 1014.9 | |
| 20260905062516 | 81 | 0.0 | 0.0 | 0.00 | 0.00 | 0.00 | 80 | 1014.9 | |
| 20260905061516 | 81 | 0.0 | 0.0 | 0.00 | 0.00 | 0.00 | 79 | 1014.9 | |
| 20260905060516 | 82 | 0.0 | 0.0 | 0.00 | 0.00 | 0.00 | 78 | 1014.9 | |
| 20260905055516 | 82 | 0.0 | 0.0 | 0.00 | 0.00 | 0.00 | 77 | 1014.9 | |
| 20260905054516 | 82 | 0.0 | 2.0 | 0.00 | 0.00 | 0.00 | 77 | 1014.8 | |
| 20260905053536 | 82 | 158 | 1.0 | 2.0 | 0.00 | 0.00 | 0.00 | 76 | 1014.8 |
| 20260905052515 | 83 | 158 | 1.0 | 3.0 | 0.00 | 0.00 | 0.00 | 76 | 1014.7 |
| 20260905051515 | 83 | 158 | 1.0 | 2.0 | 0.00 | 0.00 | 0.00 | 76 | 1014.7 |
| 20260905050515 | 83 | 0.0 | 2.0 | 0.00 | 0.00 | 0.00 | 76 | 1014.7 | |
| 20260905045516 | 83 | 0.0 | 3.0 | 0.00 | 0.00 | 0.00 | 77 | 1014.5 | |
| 20260905044616 | 83 | 0.0 | 1.0 | 0.00 | 0.00 | 0.00 | 77 | 1014.5 | |
| 20260905043516 | 83 | 0.0 | 1.0 | 0.00 | 0.00 | 0.00 | 77 | 1014.3 | |
| 20260905042516 | 83 | 0.0 | 1.0 | 0.00 | 0.00 | 0.00 | 78 | 1014.2 | |
| 20260905041536 | 84 | 0.0 | 0.0 | 0.00 | 0.00 | 0.00 | 78 | 1014.2 | |
| 20260905040516 | 84 | 0.0 | 0.0 | 0.00 | 0.00 | 0.00 | 77 | 1014.2 | |
| 20260905035536 | 85 | 0.0 | 0.0 | 0.00 | 0.00 | 0.00 | 77 | 1014.2 | |
| 20260905034516 | 85 | 0.0 | 1.0 | 0.00 | 0.00 | 0.00 | 76 | 1014.1 | |
| 20260905033536 | 85 | 158 | 1.0 | 3.0 | 0.00 | 0.00 | 0.00 | 76 | 1013.9 |
| 20260905032516 | 86 | 0.0 | 1.0 | 0.00 | 0.00 | 0.00 | 76 | 1013.9 | |
| 20260905031516 | 86 | 158 | 1.0 | 4.0 | 0.00 | 0.00 | 0.00 | 75 | 1013.8 |
| 20260905030516 | 86 | 158 | 2.0 | 3.0 | 0.00 | 0.00 | 0.00 | 74 | 1013.8 |
| 20260905025516 | 87 | 158 | 1.0 | 3.0 | 0.00 | 0.00 | 0.00 | 74 | 1013.7 |
| 20260905024516 | 87 | 158 | 1.0 | 4.0 | 0.00 | 0.00 | 0.00 | 73 | 1013.8 |
| 20260905023516 | 87 | 0.0 | 1.0 | 0.00 | 0.00 | 0.00 | 73 | 1013.7 | |
| 20260905022516 | 88 | 0.0 | 0.0 | 0.00 | 0.00 | 0.00 | 73 | 1013.6 | |
| 20260905021516 | 88 | 0.0 | 0.0 | 0.00 | 0.00 | 0.00 | 72 | 1013.6 | |
| 20260905020516 | 89 | 0.0 | 0.0 | 0.00 | 0.00 | 0.00 | 71 | 1013.5 | |
| 20260905015516 | 89 | 0.0 | 0.0 | 0.00 | 0.00 | 0.00 | 69 | 1013.5 | |
| 20260905014536 | 90 | 158 | 1.0 | 2.0 | 0.00 | 0.00 | 0.00 | 68 | 1013.3 |
| 20260905013556 | 90 | 0.0 | 2.0 | 0.00 | 0.00 | 0.00 | 68 | 1013.0 | |
| 20260905012516 | 90 | 180 | 1.0 | 3.0 | 0.00 | 0.00 | 0.00 | 68 | 1012.8 |
| 20260905011556 | 91 | 0.0 | 0.0 | 0.00 | 0.00 | 0.00 | 68 | 1012.9 | |
| 20260905010516 | 92 | 0.0 | 0.0 | 0.00 | 0.00 | 0.00 | 67 | 1012.9 | |
| 20260905005516 | 92 | 0.0 | 1.0 | 0.00 | 0.00 | 0.00 | 65 | 1012.9 | |
| 20260905004516 | 93 | 0.0 | 0.0 | 0.00 | 0.00 | 0.00 | 64 | 1012.9 | |
| 20260905003515 | 94 | 0.0 | 0.0 | 0.00 | 0.00 | 0.00 | 63 | 1012.8 | |
| 20260905002535 | 94 | 0.0 | 0.0 | 0.00 | 0.00 | 0.00 | 63 | 1012.9 | |
| 20260905001516 | 93 | 0.0 | 0.0 | 0.00 | 0.00 | 0.00 | 64 | 1012.8 | |
| 20260905000556 | 93 | 0.0 | 1.0 | 0.00 | 0.00 | 0.00 | 63 | 1012.9 | |
| 20260904235515 | 93 | 0.0 | 0.0 | 0.00 | 0.00 | 0.00 | 63 | 1012.9 | |
| 20260904234515 | 94 | 0.0 | 0.0 | 0.00 | 0.00 | 0.00 | 63 | 1012.9 | |
| 20260904233516 | 94 | 0.0 | 1.0 | 0.00 | 0.00 | 0.00 | 62 | 1012.9 | |
| 20260904232515 | 95 | 180 | 1.0 | 4.0 | 0.00 | 0.00 | 0.00 | 61 | 1013.1 |
| 20260904231516 | 95 | 225 | 1.0 | 3.0 | 0.00 | 0.00 | 0.00 | 60 | 1013.1 |
| 20260904230516 | 95 | 203 | 2.0 | 6.0 | 0.00 | 0.00 | 0.00 | 60 | 1013.1 |
| 20260904225516 | 95 | 158 | 2.0 | 5.0 | 0.00 | 0.00 | 0.00 | 59 | 1013.2 |
| 20260904224535 | 95 | 203 | 2.0 | 4.0 | 0.00 | 0.00 | 0.00 | 59 | 1013.1 |
| 20260904223515 | 95 | 203 | 2.0 | 5.0 | 0.00 | 0.00 | 0.00 | 58 | 1013.1 |